When you browse on this site, cookies collect data to enhance your experience and personalize the content and advertising you see.
Visit our Privacy Policy to learn more. By continuing to use the site, you agree to this use of cookies and data.
  • en Suisse
  • Liste des pays
  • À 7 jours
  • Température de l'eau
  • Carte météo
  • Widgets météo
  • user-avatar
    Se connecter

    Météo par heure à Trisvyate

    Ce jour, 19 Août, Lundi

    Heure Température Précipitation Vent Pression Humidité
    00:00 +14°C° 0 mm 2 m/s 739 mmHg 96%
    01:00 +14°C° 0 mm 2 m/s 739 mmHg 96%
    02:00 +13°C° 0 mm 1 m/s 740 mmHg 96%
    03:00 +13°C° 0 mm 1 m/s 740 mmHg 95%
    04:00 +13°C° 0 mm 1 m/s 740 mmHg 95%
    05:00 +13°C° 0 mm 1 m/s 741 mmHg 95%
    06:00 +14°C° 0 mm 1 m/s 741 mmHg 91%
    07:00 +16°C° 0 mm 1 m/s 741 mmHg 87%
    08:00 +19°C° 0 mm 1 m/s 742 mmHg 82%
    09:00 +19°C° 0 mm 2 m/s 742 mmHg 75%
    10:00 +21°C° 0 mm 2 m/s 742 mmHg 69%
    11:00 +22°C° 0 mm 3 m/s 742 mmHg 63%
    12:00 +24°C° 0 mm 3 m/s 742 mmHg 63%
    13:00 +25°C° 0 mm 3 m/s 742 mmHg 63%
    14:00 +26°C° 0 mm 3 m/s 742 mmHg 63%
    15:00 +25°C° 0 mm 3 m/s 743 mmHg 67%
    16:00 +25°C° 0 mm 3 m/s 743 mmHg 71%
    17:00 +25°C° 0 mm 2 m/s 743 mmHg 74%
    18:00 +23°C° 0 mm 2 m/s 743 mmHg 80%
    19:00 +20°C° 0 mm 2 m/s 743 mmHg 85%
    20:00 +19°C° 0 mm 2 m/s 743 mmHg 91%
    21:00 +19°C° 0 mm 2 m/s 743 mmHg 91%
    22:00 +18°C° 0 mm 3 m/s 743 mmHg 90%
    23:00 +18°C° 0 mm 3 m/s 743 mmHg 90%

    Demain, 20 Août, Mardi

    Heure Température Précipitation Vent Pression Humidité
    00:00 +17°C° 0 mm 2 m/s 743 mmHg 91%
    01:00 +17°C° 0 mm 2 m/s 743 mmHg 92%
    02:00 +17°C° 0 mm 2 m/s 744 mmHg 93%
    03:00 +16°C° 0.5 mm 2 m/s 744 mmHg 94%
    04:00 +16°C° 0.5 mm 2 m/s 744 mmHg 95%
    05:00 +16°C° 0.5 mm 2 m/s 744 mmHg 96%
    06:00 +17°C° 0.6 mm 2 m/s 744 mmHg 94%
    07:00 +18°C° 0.6 mm 2 m/s 744 mmHg 93%
    08:00 +20°C° 0.6 mm 2 m/s 745 mmHg 91%
    09:00 +21°C° 0.2 mm 2 m/s 745 mmHg 87%
    10:00 +23°C° 0.2 mm 2 m/s 745 mmHg 83%
    11:00 +25°C° 0.2 mm 2 m/s 745 mmHg 79%
    12:00 +25°C° 0.5 mm 2 m/s 745 mmHg 80%
    13:00 +25°C° 0.5 mm 2 m/s 745 mmHg 82%
    14:00 +26°C° 0.5 mm 2 m/s 745 mmHg 83%
    15:00 +25°C° 0.5 mm 2 m/s 745 mmHg 85%
    16:00 +24°C° 0.5 mm 1 m/s 745 mmHg 88%
    17:00 +23°C° 0.5 mm 1 m/s 745 mmHg 91%
    18:00 +23°C° 0.1 mm 1 m/s 745 mmHg 91%
    19:00 +22°C° 0.1 mm 1 m/s 745 mmHg 92%
    20:00 +21°C° 0.1 mm 1 m/s 745 mmHg 92%
    21:00 +21°C° 0 mm 1 m/s 746 mmHg 93%
    22:00 +20°C° 0 mm 1 m/s 746 mmHg 93%
    23:00 +20°C° 0 mm 1 m/s 746 mmHg 94%

    Après-demain, 21 Août, Mercredi

    Heure Température Précipitation Vent Pression Humidité
    00:00 +20°C° 0 mm 1 m/s 746 mmHg 94%
    01:00 +20°C° 0 mm 1 m/s 746 mmHg 95%
    02:00 +19°C° 0 mm 1 m/s 746 mmHg 95%
    03:00 +19°C° 0 mm 1 m/s 746 mmHg 95%
    04:00 +19°C° 0 mm 1 m/s 746 mmHg 95%
    05:00 +18°C° 0 mm 2 m/s 746 mmHg 95%
    06:00 +19°C° 0 mm 2 m/s 746 mmHg 93%
    07:00 +20°C° 0 mm 2 m/s 746 mmHg 90%
    08:00 +21°C° 0 mm 2 m/s 746 mmHg 88%
    09:00 +23°C° 0 mm 2 m/s 746 mmHg 81%
    10:00 +25°C° 0 mm 3 m/s 746 mmHg 75%
    11:00 +26°C° 0 mm 3 m/s 746 mmHg 69%
    12:00 +27°C° 0 mm 3 m/s 746 mmHg 67%
    13:00 +27°C° 0 mm 3 m/s 746 mmHg 65%
    14:00 +28°C° 0 mm 3 m/s 745 mmHg 64%
    15:00 +27°C° 0 mm 3 m/s 745 mmHg 67%
    16:00 +27°C° 0 mm 3 m/s 745 mmHg 71%
    17:00 +27°C° 0 mm 2 m/s 745 mmHg 74%
    18:00 +25°C° 0 mm 2 m/s 745 mmHg 79%
    19:00 +23°C° 0 mm 2 m/s 744 mmHg 84%
    20:00 +21°C° 0 mm 2 m/s 744 mmHg 89%
    21:00 +20°C° 0 mm 2 m/s 744 mmHg 89%
    22:00 +20°C° 0 mm 2 m/s 744 mmHg 90%
    23:00 +19°C° 0 mm 2 m/s 744 mmHg 91%

    22 Août, Jeudi

    Heure Température Précipitation Vent Pression Humidité
    00:00 +19°C° 0 mm 2 m/s 744 mmHg 91%
    01:00 +19°C° 0 mm 2 m/s 744 mmHg 91%
    02:00 +18°C° 0 mm 2 m/s 744 mmHg 91%
    03:00 +19°C° 0.4 mm 1 m/s 744 mmHg 92%
    04:00 +19°C° 0.4 mm 1 m/s 744 mmHg 92%
    05:00 +18°C° 0.4 mm 1 m/s 743 mmHg 93%
    06:00 +19°C° 0.4 mm 1 m/s 744 mmHg 93%
    07:00 +19°C° 0.4 mm 1 m/s 744 mmHg 93%
    08:00 +20°C° 0.4 mm 1 m/s 744 mmHg 92%
    09:00 +20°C° 0.3 mm 1 m/s 744 mmHg 90%
    10:00 +21°C° 0.3 mm 1 m/s 745 mmHg 88%
    11:00 +22°C° 0.3 mm 1 m/s 745 mmHg 86%
    12:00 +20°C° 0.2 mm 2 m/s 745 mmHg 88%
    13:00 +19°C° 0.2 mm 3 m/s 745 mmHg 91%
    14:00 +18°C° 0.2 mm 4 m/s 745 mmHg 93%
    15:00 +18°C° 0 mm 4 m/s 745 mmHg 93%
    16:00 +17°C° 0 mm 4 m/s 745 mmHg 93%
    17:00 +17°C° 0 mm 4 m/s 745 mmHg 93%
    18:00 +15°C° 0 mm 4 m/s 745 mmHg 93%
    19:00 +15°C° 0 mm 4 m/s 746 mmHg 93%
    20:00 +15°C° 0 mm 4 m/s 746 mmHg 92%
    21:00 +14°C° 0 mm 3 m/s 746 mmHg 93%
    22:00 +14°C° 0 mm 3 m/s 746 mmHg 94%
    23:00 +13°C° 0 mm 3 m/s 746 mmHg 95%

    23 Août, Vendredi

    Heure Température Précipitation Vent Pression Humidité
    00:00 +13°C° 0 mm 3 m/s 746 mmHg 95%
    01:00 +13°C° 0 mm 3 m/s 746 mmHg 96%
    02:00 +13°C° 0 mm 2 m/s 746 mmHg 96%
    03:00 +13°C° 0 mm 2 m/s 746 mmHg 96%
    04:00 +13°C° 0 mm 2 m/s 746 mmHg 97%
    05:00 +13°C° 0 mm 2 m/s 746 mmHg 97%
    06:00 +13°C° 0 mm 3 m/s 747 mmHg 93%
    07:00 +14°C° 0 mm 3 m/s 747 mmHg 89%
    08:00 +17°C° 0 mm 3 m/s 747 mmHg 84%
    09:00 +18°C° 0 mm 3 m/s 747 mmHg 78%
    10:00 +20°C° 0 mm 3 m/s 748 mmHg 71%
    11:00 +21°C° 0 mm 3 m/s 748 mmHg 64%
    12:00 +21°C° 0.1 mm 3 m/s 748 mmHg 63%
    13:00 +22°C° 0.1 mm 3 m/s 748 mmHg 62%
    14:00 +22°C° 0.1 mm 3 m/s 748 mmHg 60%
    15:00 +21°C° 0 mm 3 m/s 748 mmHg 62%
    16:00 +21°C° 0 mm 2 m/s 748 mmHg 65%
    17:00 +21°C° 0 mm 2 m/s 748 mmHg 67%
    18:00 +19°C° 0 mm 2 m/s 748 mmHg 71%
    19:00 +17°C° 0 mm 2 m/s 748 mmHg 75%
    20:00 +15°C° 0 mm 2 m/s 748 mmHg 79%
    21:00 +14°C° 0 mm 2 m/s 748 mmHg 82%
    22:00 +14°C° 0 mm 2 m/s 748 mmHg 85%
    23:00 +13°C° 0 mm 1 m/s 748 mmHg 87%

    24 Août, Samedi

    Heure Température Précipitation Vent Pression Humidité
    00:00 +13°C° 0 mm 1 m/s 749 mmHg 88%
    01:00 +12°C° 0 mm 1 m/s 749 mmHg 89%
    02:00 +12°C° 0 mm 1 m/s 749 mmHg 90%
    03:00 +12°C° 0 mm 1 m/s 749 mmHg 91%
    04:00 +11°C° 0 mm 1 m/s 749 mmHg 91%
    05:00 +11°C° 0 mm 1 m/s 749 mmHg 92%
    06:00 +13°C° 0 mm 1 m/s 749 mmHg 85%
    07:00 +15°C° 0 mm 1 m/s 749 mmHg 79%
    08:00 +18°C° 0 mm 1 m/s 750 mmHg 72%
    09:00 +20°C° 0 mm 1 m/s 750 mmHg 67%
    10:00 +21°C° 0 mm 1 m/s 750 mmHg 62%
    11:00 +22°C° 0 mm 1 m/s 750 mmHg 57%
    12:00 +23°C° 0 mm 1 m/s 750 mmHg 55%
    13:00 +23°C° 0 mm 1 m/s 750 mmHg 54%
    14:00 +24°C° 0 mm 1 m/s 750 mmHg 52%
    15:00 +23°C° 0 mm 1 m/s 750 mmHg 57%
    16:00 +23°C° 0 mm 1 m/s 749 mmHg 62%
    17:00 +23°C° 0 mm 1 m/s 749 mmHg 67%
    18:00 +21°C° 0 mm 1 m/s 749 mmHg 73%
    19:00 +18°C° 0 mm 1 m/s 749 mmHg 79%
    20:00 +15°C° 0 mm 1 m/s 749 mmHg 86%
    21:00 +14°C° 0 mm 0 m/s 749 mmHg 87%
    22:00 +13°C° 0 mm 0 m/s 749 mmHg 88%
    23:00 +13°C° 0 mm 0 m/s 749 mmHg 89%
    Voir plus